[[{"header":{"parameterUnit":"m.s-1","parameterCategory":1,"la1":30.2992,"la2":30.254,"lo1":-89.0895,"lo2":-89.0443,"dy":0.0025,"dx":0.0025,"nx":19,"ny":19,"refTime":"2026-05-24T09:00:00:Z","depth":0,"parameterNumber":2,"parameterNumberName":"U-component_of_WINDS"},"data":[0,0,0,-3.9979,-3.9982,-4.0152,-4.0153,-4.0363,-4.0365,0,0,0,0,0,0,0,0,0,0,0,-3.9923,-3.9924,-3.9978,-3.9982,-4.0152,-4.0153,-4.0363,-4.0365,0,0,0,0,0,0,0,0,0,0,0,-3.9922,-3.9924,-3.9925,-3.9983,-4.0152,-4.0153,-4.0362,-4.0237,0,0,0,0,0,0,0,0,0,0,-4.0073,-4.0016,-3.9923,-3.9925,-3.9984,-4.0152,-4.0153,-4.0231,-4.0245,-4.0283,0,-4.0314,0,-4.0343,-4.0378,-4.0379,0,0,0,-3.9986,-4.0005,-4.0055,-3.9926,-3.9986,-4.0152,-4.0077,-4.0239,-4.0254,-4.0301,-4.0317,-4.0325,-4.0346,-4.038,-4.0381,-4.0585,-4.0586,0,0,-3.9977,-3.9951,-4.0045,-4.0065,-4.0038,-4.0071,-4.0082,-4.0248,-4.0265,-4.0318,-4.033,-4.035,-4.0381,-4.0383,-4.0585,-4.0586,0,0,0,-3.9947,-3.9944,-3.9991,-4.0056,-4.0087,-4.0076,-4.0089,-4.0257,-4.0275,-4.0333,-4.0352,-4.0382,-4.0385,-4.0584,-4.0585,-4.0597,0,0,0,-3.9942,-3.9927,-3.9986,-3.9972,-4.0084,-4.0174,-4.0094,-4.0263,-4.0283,-4.0351,-4.0382,-4.0387,-4.0583,-4.0584,-4.0595,-4.0606,0,0,0,-3.9914,-3.9923,-3.9946,-3.997,-4.0042,-4.0172,-4.02,-4.0268,-4.0295,-4.0379,-4.0387,-4.0583,-4.0584,-4.0593,-4.0603,-4.0652,0,0,0,-3.9876,-3.9954,-3.9946,-4.0041,-4.0041,-4.0178,-4.0199,-4.0303,-4.0377,-4.0383,-4.0583,-4.0585,-4.0592,-4.0601,-4.065,-4.0688,-4.0701,0,0,-3.996,-3.9963,-4.0022,-4.0019,-4.0151,-4.0155,-4.0289,-4.0382,-4.0415,-4.0527,-4.0532,-4.0595,-4.0603,-4.0652,-4.0788,-4.0798,0,0,0,-4.0039,-4.008,-4.0121,-4.0191,-4.0264,-4.0327,-4.0403,-4.0437,-4.0534,-4.0467,-4.0628,-4.0633,-4.0663,-4.0682,-4.0691,-4.0718,-4.0593,-4.0593,-4.0593,-4.0119,-4.0157,-4.0256,-4.0314,-4.0381,-4.0459,-4.0517,-4.0577,-4.0595,-4.0633,-4.0666,-4.0744,-4.0765,-4.0772,-4.08,-4.069,-4.069,-4.069,-4.069,-4.0245,-4.0309,-4.0333,-4.0437,-4.0477,-4.0565,-4.0644,-4.0654,-4.0743,-4.0722,-4.075,-4.0722,-4.0782,-4.0809,-4.0691,-4.0691,-4.0691,-4.0691,-4.0691,-4.03,-4.0337,-4.0379,-4.0484,-4.0561,-4.0618,-4.0702,-4.0736,-4.0768,-4.0796,-4.0835,-4.0835,-4.0838,-4.0812,-4.0813,-4.0813,-4.0813,-4.0813,-4.0814,-4.034,-4.0387,-4.0453,-4.0539,-4.0588,-4.0658,-4.0738,-4.0788,-4.0852,-4.087,-4.087,-4.0885,-4.0782,-4.0754,-4.0818,-4.0817,-4.0817,-4.0816,-4.0816,-4.0452,-4.0432,-4.0535,-4.0584,-4.0688,-4.0762,-4.0805,-4.0904,-4.0951,-4.0991,-4.1001,-4.092,-4.0925,-4.0919,-4.0896,-4.0993,-4.0993,-4.0993,-4.0993,-4.0498,-4.0505,-4.0617,-4.0694,-4.0774,-4.0824,-4.0939,-4.1003,-4.1066,-4.1098,-4.1089,-4.1063,-4.1054,-4.1065,-4.1055,-4.1035,-4.1165,-4.1165,-4.1165,-4.0568,-4.0585,-4.0675,-4.0737,-4.0821,-4.0892,-4.1002,-4.1091,-4.1159,-4.1173,-4.1123,-4.1116,-4.1074,-4.1058,-4.1069,-4.1052,-4.1015,0,0]},{"header":{"parameterUnit":"m.s-1","parameterCategory":1,"la1":30.2992,"la2":30.254,"lo1":-89.0895,"lo2":-89.0443,"dy":0.0025,"dx":0.0025,"nx":19,"ny":19,"refTime":"2026-05-24T09:00:00:Z","depth":0,"parameterNumber":3,"parameterNumberName":"V-component_of_WINDS"},"data":[0,0,0,6.0557,6.0558,6.0609,6.0609,6.0682,6.0683,0,0,0,0,0,0,0,0,0,0,0,6.0548,6.0548,6.0556,6.0558,6.0609,6.0609,6.0682,6.0683,0,0,0,0,0,0,0,0,0,0,0,6.0547,6.0548,6.0549,6.0558,6.0609,6.0609,6.0682,6.064,0,0,0,0,0,0,0,0,0,0,6.0589,6.0587,6.0548,6.0549,6.0558,6.0609,6.0609,6.0638,6.0643,6.0663,0,6.0684,0,6.0685,6.0688,6.0689,0,0,0,6.0553,6.0583,6.0592,6.0549,6.0559,6.0609,6.0584,6.064,6.0646,6.0669,6.0685,6.0687,6.0686,6.0689,6.0689,6.0826,6.0827,0,0,6.055,6.056,6.0588,6.0595,6.059,6.0583,6.0586,6.0644,6.066,6.0685,6.0688,6.0687,6.0689,6.069,6.0825,6.0826,0,0,0,6.0545,6.0558,6.0565,6.0593,6.0602,6.0584,6.0588,6.0658,6.0659,6.0689,6.0688,6.069,6.0691,6.0824,6.0825,6.0878,0,0,0,6.0543,6.0555,6.0564,6.057,6.0601,6.0631,6.0601,6.0655,6.0662,6.0688,6.069,6.0692,6.0823,6.0825,6.0875,6.0901,0,0,0,6.0542,6.0555,6.0565,6.057,6.0593,6.0629,6.0634,6.0656,6.0661,6.0689,6.0692,6.0822,6.0824,6.0872,6.0896,6.094,0,0,0,6.0543,6.061,6.0566,6.064,6.0593,6.0663,6.0634,6.0685,6.0715,6.069,6.0823,6.0825,6.0871,6.0893,6.0936,6.0978,6.0997,0,0,6.0633,6.0621,6.0664,6.0626,6.0707,6.0654,6.0742,6.0759,6.0752,6.0801,6.0804,6.0876,6.0896,6.0939,6.1098,6.1113,0,0,0,6.0696,6.0727,6.0746,6.0776,6.0793,6.0809,6.0812,6.0819,6.086,6.078,6.0904,6.0915,6.094,6.0959,6.0972,6.0993,6.0835,6.0835,6.0834,6.0836,6.0825,6.0896,6.0891,6.0921,6.0924,6.0947,6.0956,6.0935,6.0965,6.0978,6.1077,6.11,6.1109,6.1131,6.1,6.1,6.1001,6.1001,6.0966,6.1008,6.0981,6.1039,6.1027,6.1075,6.1081,6.1065,6.1107,6.1065,6.1086,6.104,6.1126,6.1144,6.1005,6.1004,6.1004,6.1003,6.1003,6.1056,6.1074,6.1083,6.1125,6.116,6.1152,6.1195,6.1182,6.1169,6.1191,6.1204,6.1203,6.12,6.1198,6.1199,6.1199,6.1199,6.1199,6.12,6.1145,6.1153,6.1191,6.1216,6.1233,6.1255,6.126,6.1277,6.1292,6.1279,6.1279,6.1255,6.1137,6.1107,6.1205,6.1204,6.1203,6.1203,6.1202,6.128,6.1248,6.1307,6.1325,6.1352,6.1387,6.1371,6.1406,6.1418,6.1439,6.1411,6.1326,6.1312,6.1302,6.1277,6.1414,6.1414,6.1414,6.1414,6.1355,6.1348,6.1406,6.1436,6.1463,6.1455,6.1521,6.1526,6.1525,6.1531,6.151,6.1476,6.1467,6.1459,6.1445,6.1421,6.1591,6.1592,6.1592,6.1437,6.1432,6.1491,6.1492,6.1513,6.153,6.1592,6.1626,6.1618,6.1599,6.1536,6.1528,6.1474,6.1457,6.1434,6.1414,6.137,0,0]}]]